sat.trackr.live / text

‹ back to catalog

STARLINK-34497

NORAD 64696 · 2025-142A

PAYLOAD ACTIVE UNKNOWN

§ Identity

Operator
Country
US
Launch date
2025-06-28
Launch site
AFWTR
Launch vehicle
Mass (kg)
RCS (m²)

Purposes: comms

External: N2YO · Heavens-Above · Gunter

§ Orbital elements

Epoch: 2026-05-25T05:00:37.010880Z

Period
96.11 min
Inclination
70.0000°
Eccentricity
0.0003261
Mean motion
14.98336570 rev/d
Perigee alt
569.8 km
Apogee alt
574.3 km
Semi-major
6,950.2 km
B*
2.0895e-4
RAAN
121.4871°
Arg perigee
267.4302°
Mean anomaly
92.6483°
Rev number
5,110

§ Raw data

STARLINK-344971 64696U 25142A   26145.20876170  .00002401  00000+0  20895-3 0  99972 64696  70.0000 121.4871 0003261 267.4302  92.6483 14.98336570 51105

JSON: /api/v1/satellites/64696 · /tle

For live sub-satellite position, see the globe view (requires WebGL).

§ Visibility from observer

Set your observer location to see the next 7 days of passes ≥ 10°. The values pass through the URL so the page stays shareable.

No JS? Fill the form by hand. The geolocation button needs JavaScript.